Simultaneous Nadir Overpasses (SNOs) Predictions

Prediction of SNOs between LANDSAT-8 and METOP-A Satellite Orbit:

Table of predicted SNOs for the next 14.0 days since TLE Epoch: 3/1/2015
Index Date (LANDSAT-8) Time (LANDSAT-8) Lat,Lon (LANDSAT-8) SZA (LANDSAT-8 ) Date (METOP-A) Time (METOP-A) Lat,Lon (METOP-A) SZA (METOP-A ) Distance(km) Time Diff (sec)
1 03/02/2015 18:51:02 -81.10, 116.33 90.15 03/02/2015 18:50:01 -81.10, 116.38 90.16 1.03 61
2 03/02/2015 19:40:27 81.13, -75.63 89.90 03/02/2015 19:40:40 81.13, -75.61 89.91 0.48 13
3 03/05/2015 14:25:15 -81.11,-177.11 91.20 03/05/2015 14:24:24 -81.10,-177.29 91.24 3.10 51
4 03/05/2015 15:14:40 81.13, -9.10 88.85 03/05/2015 15:15:02 81.14, -8.95 88.88 2.72 22
5 03/08/2015 09:59:27 -81.10,-110.72 92.28 03/08/2015 09:58:45 -81.11,-110.66 92.28 1.33 42
6 03/08/2015 10:48:52 81.13, 57.27 87.76 03/08/2015 10:49:24 81.13, 57.27 87.78 0.60 32
7 03/11/2015 05:33:39 -81.11, -44.13 93.34 03/11/2015 05:33:07 -81.12, -44.09 93.34 0.70 32
8 03/11/2015 06:23:04 81.13, 123.83 86.70 03/11/2015 06:23:46 81.14, 123.79 86.71 0.71 42
9 03/14/2015 01:07:51 -81.11, 22.30 94.43 03/14/2015 01:07:29 -81.12, 22.40 94.42 1.93 22




NCC Satellite Simultaneous Nadir Overpasses (SNOs) Prediction Service
